• In Uzbekistan
  • List of Countries
  • For 7 days
  • Water Temperature
  • Satellite Maps
  • Weather Map
  • Weather Widgets
  • user-avatar
    Login

    Hourly Weather Kerns

    Today, 26 April, Wednesday

    Time Temperature Precipitation Wind Pressure Humidity
    00:00 +22°C° 0 mm 3 mps 760 mmHg 97%
    01:00 +22°C° 0 mm 3 mps 760 mmHg 97%
    02:00 +22°C° 0 mm 3 mps 759 mmHg 98%
    03:00 +22°C° 0 mm 3 mps 759 mmHg 98%
    04:00 +21°C° 0 mm 3 mps 759 mmHg 98%
    05:00 +21°C° 0 mm 3 mps 759 mmHg 98%
    06:00 +21°C° 0 mm 3 mps 759 mmHg 98%
    07:00 +21°C° 0 mm 3 mps 760 mmHg 97%
    08:00 +25°C° 0 mm 3 mps 760 mmHg 86%
    09:00 +27°C° 0 mm 3 mps 760 mmHg 75%
    10:00 +30°C° 0 mm 3 mps 760 mmHg 64%
    11:00 +31°C° 0 mm 3 mps 759 mmHg 59%
    12:00 +33°C° 0 mm 3 mps 759 mmHg 54%
    13:00 +34°C° 0 mm 3 mps 758 mmHg 49%
    14:00 +33°C° 0 mm 3 mps 758 mmHg 52%
    15:00 +33°C° 0 mm 3 mps 758 mmHg 55%
    16:00 +31°C° 0 mm 3 mps 757 mmHg 58%
    17:00 +29°C° 0 mm 3 mps 758 mmHg 71%
    18:00 +26°C° 0 mm 3 mps 758 mmHg 83%
    19:00 +23°C° 0 mm 2 mps 758 mmHg 96%
    20:00 +21°C° 0 mm 2 mps 759 mmHg 97%
    21:00 +21°C° 0 mm 2 mps 759 mmHg 97%
    22:00 +20°C° 0 mm 2 mps 759 mmHg 98%
    23:00 +21°C° 0 mm 1 mps 759 mmHg 98%

    Tomorrow, 27 April, Thursday

    Time Temperature Precipitation Wind Pressure Humidity
    00:00 +21°C° 0 mm 1 mps 759 mmHg 97%
    01:00 +20°C° 0 mm 1 mps 759 mmHg 97%
    02:00 +21°C° 0 mm 1 mps 758 mmHg 95%
    03:00 +21°C° 0 mm 1 mps 758 mmHg 93%
    04:00 +21°C° 0 mm 1 mps 758 mmHg 91%
    05:00 +21°C° 0 mm 1 mps 758 mmHg 88%
    06:00 +21°C° 0 mm 2 mps 758 mmHg 85%
    07:00 +21°C° 0 mm 2 mps 759 mmHg 82%
    08:00 +25°C° 0 mm 2 mps 759 mmHg 71%
    09:00 +28°C° 0 mm 2 mps 760 mmHg 61%
    10:00 +31°C° 0 mm 3 mps 760 mmHg 51%
    11:00 +33°C° 0 mm 3 mps 759 mmHg 49%
    12:00 +34°C° 0 mm 3 mps 759 mmHg 47%
    13:00 +35°C° 0 mm 3 mps 758 mmHg 44%
    14:00 +34°C° 0 mm 3 mps 758 mmHg 48%
    15:00 +34°C° 0 mm 3 mps 757 mmHg 51%
    16:00 +33°C° 0 mm 3 mps 757 mmHg 54%
    17:00 +29°C° 0 mm 3 mps 757 mmHg 68%
    18:00 +26°C° 0 mm 2 mps 758 mmHg 81%
    19:00 +23°C° 0 mm 2 mps 758 mmHg 95%
    20:00 +23°C° 0 mm 2 mps 759 mmHg 96%
    21:00 +21°C° 0 mm 2 mps 759 mmHg 96%
    22:00 +21°C° 0 mm 2 mps 760 mmHg 97%
    23:00 +21°C° 0 mm 2 mps 759 mmHg 94%

    Day after tomorrow, 28 April, Friday

    Time Temperature Precipitation Wind Pressure Humidity
    00:00 +21°C° 0 mm 2 mps 759 mmHg 92%
    01:00 +21°C° 0 mm 2 mps 759 mmHg 90%
    02:00 +21°C° 0 mm 3 mps 759 mmHg 85%
    03:00 +21°C° 0 mm 3 mps 759 mmHg 81%
    04:00 +21°C° 0 mm 4 mps 759 mmHg 76%
    05:00 +20°C° 0 mm 4 mps 759 mmHg 70%
    06:00 +20°C° 0 mm 5 mps 760 mmHg 64%
    07:00 +19°C° 0 mm 5 mps 760 mmHg 58%
    08:00 +22°C° 0 mm 5 mps 761 mmHg 53%
    09:00 +25°C° 0 mm 5 mps 761 mmHg 48%
    10:00 +28°C° 0 mm 6 mps 761 mmHg 43%
    11:00 +29°C° 0 mm 6 mps 761 mmHg 43%
    12:00 +30°C° 0 mm 6 mps 760 mmHg 43%
    13:00 +32°C° 0 mm 6 mps 759 mmHg 43%
    14:00 +30°C° 0 mm 6 mps 759 mmHg 47%
    15:00 +29°C° 0 mm 6 mps 759 mmHg 51%
    16:00 +29°C° 0 mm 6 mps 759 mmHg 56%
    17:00 +26°C° 0 mm 5 mps 759 mmHg 67%
    18:00 +23°C° 0 mm 5 mps 760 mmHg 79%
    19:00 +21°C° 0 mm 5 mps 760 mmHg 90%
    20:00 +20°C° 0 mm 4 mps 761 mmHg 91%
    21:00 +19°C° 0 mm 4 mps 761 mmHg 93%
    22:00 +18°C° 0 mm 4 mps 762 mmHg 94%
    23:00 +18°C° 0 mm 4 mps 761 mmHg 94%

    29 April, Saturday

    Time Temperature Precipitation Wind Pressure Humidity
    00:00 +18°C° 0 mm 4 mps 761 mmHg 93%
    01:00 +18°C° 0 mm 4 mps 761 mmHg 92%
    02:00 +17°C° 0 mm 4 mps 761 mmHg 90%
    03:00 +17°C° 0 mm 4 mps 760 mmHg 89%
    04:00 +17°C° 0 mm 4 mps 760 mmHg 87%
    05:00 +17°C° 0 mm 4 mps 760 mmHg 86%
    06:00 +17°C° 0 mm 4 mps 761 mmHg 85%
    07:00 +17°C° 0 mm 4 mps 761 mmHg 84%
    08:00 +20°C° 0 mm 5 mps 762 mmHg 73%
    09:00 +22°C° 0 mm 5 mps 762 mmHg 63%
    10:00 +26°C° 0 mm 5 mps 762 mmHg 52%
    11:00 +27°C° 0 mm 5 mps 761 mmHg 48%
    12:00 +28°C° 0 mm 5 mps 761 mmHg 44%
    13:00 +30°C° 0 mm 5 mps 760 mmHg 39%
    14:00 +29°C° 0 mm 5 mps 760 mmHg 41%
    15:00 +29°C° 0 mm 5 mps 759 mmHg 42%
    16:00 +28°C° 0 mm 5 mps 759 mmHg 44%
    17:00 +25°C° 0 mm 5 mps 760 mmHg 55%
    18:00 +21°C° 0 mm 5 mps 760 mmHg 67%
    19:00 +17°C° 0 mm 5 mps 761 mmHg 78%
    20:00 +16°C° 0 mm 5 mps 761 mmHg 77%
    21:00 +17°C° 0 mm 4 mps 761 mmHg 76%
    22:00 +17°C° 0 mm 4 mps 762 mmHg 75%
    23:00 +17°C° 0 mm 4 mps 761 mmHg 81%

    30 April, Sunday

    Time Temperature Precipitation Wind Pressure Humidity
    00:00 +18°C° 0 mm 4 mps 761 mmHg 86%
    01:00 +18°C° 0 mm 3 mps 761 mmHg 92%
    02:00 +18°C° 0 mm 3 mps 760 mmHg 94%
    03:00 +19°C° 0 mm 3 mps 760 mmHg 95%
    04:00 +19°C° 0 mm 3 mps 759 mmHg 97%
    05:00 +20°C° 0.1 mm 3 mps 760 mmHg 97%
    06:00 +20°C° 0.1 mm 3 mps 760 mmHg 97%
    07:00 +20°C° 0.1 mm 3 mps 760 mmHg 98%
    08:00 +22°C° 0.1 mm 4 mps 761 mmHg 91%
    09:00 +25°C° 0.1 mm 4 mps 761 mmHg 85%
    10:00 +26°C° 0.1 mm 5 mps 761 mmHg 78%
    11:00 +27°C° 0.1 mm 5 mps 760 mmHg 74%
    12:00 +28°C° 0.1 mm 5 mps 759 mmHg 70%
    13:00 +29°C° 0.1 mm 5 mps 759 mmHg 65%
    14:00 +29°C° 0.1 mm 5 mps 759 mmHg 67%
    15:00 +28°C° 0.1 mm 5 mps 758 mmHg 69%
    16:00 +28°C° 0.1 mm 4 mps 758 mmHg 71%
    17:00 +26°C° 0.1 mm 4 mps 759 mmHg 80%
    18:00 +25°C° 0.1 mm 4 mps 759 mmHg 88%
    19:00 +22°C° 0.1 mm 4 mps 760 mmHg 97%
    20:00 +22°C° 0.2 mm 3 mps 760 mmHg 97%
    21:00 +22°C° 0.2 mm 3 mps 760 mmHg 98%
    22:00 +22°C° 0.2 mm 3 mps 760 mmHg 98%
    23:00 +22°C° 0.4 mm 3 mps 760 mmHg 98%

    1 May, Monday

    Time Temperature Precipitation Wind Pressure Humidity
    00:00 +22°C° 0.4 mm 3 mps 760 mmHg 98%
    01:00 +22°C° 0.4 mm 3 mps 759 mmHg 98%
    02:00 +22°C° 0.4 mm 3 mps 759 mmHg 98%
    03:00 +22°C° 0.4 mm 3 mps 759 mmHg 98%
    04:00 +22°C° 0.4 mm 3 mps 759 mmHg 98%
    05:00 +22°C° 0.4 mm 3 mps 759 mmHg 98%
    06:00 +22°C° 0.4 mm 3 mps 759 mmHg 98%
    07:00 +22°C° 0.4 mm 3 mps 760 mmHg 99%
    08:00 +24°C° 0.3 mm 3 mps 760 mmHg 92%
    09:00 +26°C° 0.3 mm 3 mps 760 mmHg 85%
    10:00 +27°C° 0.3 mm 4 mps 760 mmHg 78%
    11:00 +28°C° 0.2 mm 4 mps 759 mmHg 73%
    12:00 +29°C° 0.2 mm 4 mps 758 mmHg 68%
    13:00 +30°C° 0.2 mm 4 mps 758 mmHg 63%
    14:00 +30°C° 0.1 mm 4 mps 757 mmHg 66%
    15:00 +29°C° 0.1 mm 4 mps 757 mmHg 69%
    16:00 +28°C° 0.1 mm 4 mps 757 mmHg 72%
    17:00 +27°C° 0.1 mm 4 mps 758 mmHg 80%
    18:00 +25°C° 0.1 mm 3 mps 758 mmHg 88%
    19:00 +22°C° 0.1 mm 3 mps 759 mmHg 96%
    20:00 +22°C° 0.1 mm 3 mps 759 mmHg 96%
    21:00 +22°C° 0.1 mm 3 mps 759 mmHg 97%
    22:00 +21°C° 0.1 mm 3 mps 760 mmHg 97%
    23:00 +21°C° 0 mm 3 mps 759 mmHg 97%
    Show more